Weather History for Kendall, FL

Change the Weather History Date:

Thursday, January 24, 2013

  Actual Average Record
Temperature  
Mean Temperature 64 °F -  
Max Temperature 75 °F 77 °F 82 °F (1990)
Min Temperature 54 °F 56 °F 36 °F (2003)
Growing Degree Days 14 (Base 50)    
Moisture  
Dew Point 54 °F    
Average Humidity 72    
Maximum Humidity 97    
Minimum Humidity 48    
Precipitation  
Precipitation 0.00 in - - ()
Sea Level Pressure  
Sea Level Pressure 30.25 in    
Wind  
Wind Speed 5 mph (NNE)    
Max Wind Speed 13 mph    
Max Gust Speed -    
Visibility 10 miles    
Events      
Averages and records for this station are not official NWS values.
T = Trace of Precipitation, MM = Missing Value Source: NWS Daily Summary

Daily Weather History Graph

Daily Weather History Graph

Search for Another Location

Airport:

Trip Planner

Search our weather history database for the weather conditions in past years. The results will help you decide how hot, cold, wet, or windy it might be!

Date:

Astronomy

Jan. 24, 2013 Rise Set
Actual Time 7:08 AM EST 5:59 PM EST
Civil Twilight 6:43 AM EST 6:24 PM EST
Nautical Twilight 6:16 AM EST 6:52 PM EST
Astronomical Twilight 5:48 AM EST 7:19 PM EST
Moon 4:03 PM EST (1/24) 5:01 AM EST (1/24)
Length of Visible Light 11h 40m
Length of Day
10h 51m
Waxing Gibbous, 94% of the Moon is Illuminated
Jan 24
Waxing Gibbous
Jan 26
Full
Feb 3
Last Quarter
Feb 10
New
Feb 17
First Quarter

Hourly Weather History & Observations

Time (EST) Temp. Dew Point Humidity Pressure Visibility Wind Dir Wind Speed Gust Speed Precip Events Conditions
12:53 AM 60.1 °F 55.9 °F 86% 30.25 in 10.0 mi North 5.8 mph - N/A   Clear
1:53 AM 57.9 °F 55.0 °F 90% 30.25 in 10.0 mi North 3.5 mph - N/A   Clear
2:53 AM 57.9 °F 55.0 °F 90% 30.23 in 10.0 mi NNE 5.8 mph - N/A   Clear
3:53 AM 57.9 °F 54.0 °F 87% 30.23 in 10.0 mi NNE 5.8 mph - N/A   Clear
4:53 AM 55.9 °F 55.0 °F 97% 30.24 in 10.0 mi Calm Calm - N/A   Clear
5:53 AM 55.0 °F 54.0 °F 96% 30.23 in 10.0 mi Calm Calm - N/A   Clear
6:53 AM 54.0 °F 53.1 °F 97% 30.25 in 10.0 mi North 4.6 mph - N/A   Clear
7:53 AM 57.9 °F 55.9 °F 93% 30.27 in 10.0 mi Calm Calm - N/A   Clear
8:53 AM 63.0 °F 55.9 °F 78% 30.30 in 10.0 mi North 10.4 mph - N/A   Clear
9:53 AM 69.1 °F 54.0 °F 58% 30.31 in 10.0 mi North 10.4 mph - N/A   Partly Cloudy
10:53 AM 72.0 °F 54.0 °F 53% 30.29 in 10.0 mi NNE 8.1 mph - N/A   Clear
11:53 AM 73.0 °F 55.0 °F 53% 30.27 in 10.0 mi Variable 3.5 mph - N/A   Partly Cloudy
12:53 PM 73.9 °F 55.0 °F 52% 30.25 in 10.0 mi NE 12.7 mph - N/A   Scattered Clouds
1:53 PM 75.9 °F 55.0 °F 48% 30.23 in 10.0 mi Variable 6.9 mph - N/A   Scattered Clouds
2:53 PM 73.9 °F 55.0 °F 52% 30.20 in 10.0 mi ENE 8.1 mph - N/A   Mostly Cloudy
3:53 PM 75.0 °F 55.0 °F 50% 30.20 in 10.0 mi East 4.6 mph - N/A   Partly Cloudy
4:53 PM 72.0 °F 55.0 °F 55% 30.22 in 10.0 mi East 11.5 mph - N/A   Mostly Cloudy
5:53 PM 70.0 °F 55.9 °F 61% 30.23 in 10.0 mi East 8.1 mph - N/A   Clear
6:53 PM 68.0 °F 55.9 °F 65% 30.24 in 10.0 mi ENE 6.9 mph - N/A   Clear
7:53 PM 64.9 °F 55.0 °F 70% 30.25 in 10.0 mi Calm Calm - N/A   Clear
8:53 PM 61.0 °F 55.0 °F 81% 30.26 in 10.0 mi NNE 4.6 mph - N/A   Clear
9:53 PM 64.0 °F 52.0 °F 65% 30.26 in 10.0 mi NNE 8.1 mph - N/A   Clear
10:53 PM 61.0 °F 51.1 °F 70% 30.27 in 10.0 mi NNE 3.5 mph - N/A   Clear
11:53 PM 59.0 °F 51.1 °F 75% 30.27 in 10.0 mi Calm Calm - N/A   Clear